Palm Springs, CA

10:18 AM PDT on September 21, 2017 (GMT -0700)
Palm Springs International

Weather History for KPSP - January, 2013

Change the Weather History Date:

Friday, January 25, 2013

  Actual Average Record
Temperature  
Mean Temperature 59 °F 58 °F  
Max Temperature 61 °F 70 °F 90 °F (1948)
Min Temperature 57 °F 47 °F 28 °F (1932)
Degree Days  
Heating Degree Days 6 7  
Month to date heating degree days 229 199  
Since 1 July heating degree days 530 585  
Cooling Degree Days 0 0  
Month to date cooling degree days 1 0  
Year to date cooling degree days 1 0  
Growing Degree Days 9 (Base 50)    
Moisture  
Dew Point 56 °F    
Average Humidity 85    
Maximum Humidity 90    
Minimum Humidity 80    
Precipitation  
Precipitation 0.21 in 0.02 in 2.17 in (1969)
Month to date precipitation 0.22 0.92  
Year to date precipitation 0.22 0.92  
Since 1 July precipitation 1.44  
Snow  
Snow 0.00 in - - ()
Month to date snowfall 0.0  
Year to date snowfall 0.0  
Snow Depth 0.00 in    
Sea Level Pressure  
Sea Level Pressure 30.09 in    
Wind  
Wind Speed 3 mph (WNW)    
Max Wind Speed 8 mph    
Max Gust Speed 10 mph    
Visibility 9 miles    
Events Rain    
T = Trace of Precipitation, MM = Missing Value Source: NWS Daily Summary

Daily Weather History Graph

Daily Weather History Graph

Search for Another Location

Airport or City:

Trip Planner

Search our weather history database for the weather conditions in past years. The results will help you decide how hot, cold, wet, or windy it might be!

Date:

Astronomy

Jan. 25, 2013 Rise Set
Actual Time 6:46 AM PST 5:10 PM PST
Civil Twilight 6:20 AM PST 5:36 PM PST
Nautical Twilight 5:50 AM PST 6:07 PM PST
Astronomical Twilight 5:20 AM PST 6:36 PM PST
Moon 4:11 PM PST (1/25) 5:29 AM PST (1/25)
Length of Visible Light 11h 16m
Length of Day
10h 23m
Waxing Gibbous, 98% of the Moon is Illuminated
Jan 25
Waxing Gibbous
Jan 26
Full
Feb 3
Last Quarter
Feb 9
New
Feb 17
First Quarter

Hourly Weather History & Observations

Time (PST) Temp. Dew Point Humidity Pressure Visibility Wind Dir Wind Speed Gust Speed Precip Events Conditions
12:53 AM 57.9 °F 53.1 °F 84% 30.18 in 10.0 mi NNW 5.8 mph - 0.02 in Rain Light Rain
1:53 AM 59.0 °F 51.1 °F 75% 30.16 in 10.0 mi Calm Calm - 0.00 in   Overcast
2:53 AM 59.0 °F 53.1 °F 81% 30.14 in 10.0 mi NW 6.9 mph - N/A   Overcast
4:53 AM 57.9 °F 54.0 °F 87% 30.14 in 10.0 mi Calm Calm - 0.01 in Rain Light Rain
5:53 AM 57.9 °F 54.0 °F 87% 30.14 in 10.0 mi West 4.6 mph - 0.01 in Rain Light Rain
6:53 AM 57.9 °F 55.9 °F 93% 30.15 in 10.0 mi North 4.6 mph - 0.00 in Rain Light Rain
7:53 AM 57.9 °F 54.0 °F 87% 30.15 in 10.0 mi NNW 3.5 mph - 0.00 in Rain Light Rain
8:53 AM 59.0 °F 55.9 °F 90% 30.17 in 10.0 mi Calm Calm - 0.00 in   Overcast
9:53 AM 59.0 °F 57.0 °F 93% 30.20 in 4.0 mi WSW 3.5 mph - 0.07 in Rain Light Rain
10:53 AM 59.0 °F 55.9 °F 90% 30.18 in 10.0 mi WNW 3.5 mph - 0.05 in Rain Light Rain
11:53 AM 61.0 °F 55.9 °F 83% 30.14 in 10.0 mi WNW 3.5 mph - 0.01 in Rain Light Rain
12:53 PM 61.0 °F 57.0 °F 87% 30.09 in 10.0 mi SW 3.5 mph - 0.02 in Rain Light Rain
1:53 PM 61.0 °F 55.9 °F 83% 30.07 in 6.0 mi Calm Calm - 0.01 in Rain Light Rain
2:53 PM 61.0 °F 55.9 °F 83% 30.06 in 6.0 mi Calm Calm - 0.01 in Rain Light Rain
3:53 PM 60.1 °F 57.9 °F 93% 30.03 in 6.0 mi Calm Calm - 0.03 in Rain Light Rain
4:53 PM 60.1 °F 57.0 °F 90% 30.00 in 10.0 mi Calm Calm - 0.01 in   Overcast
5:53 PM 60.1 °F 57.9 °F 93% 30.02 in 10.0 mi NNE 3.5 mph - 0.01 in Rain Light Rain
6:53 PM 59.0 °F 57.9 °F 96% 30.04 in 9.0 mi North 3.5 mph - 0.06 in Rain Light Rain
7:53 PM 57.9 °F 57.9 °F 100% 30.03 in 9.0 mi SW 3.5 mph - 0.04 in Rain Light Rain
8:53 PM 57.9 °F 57.9 °F 100% 30.00 in 10.0 mi SW 3.5 mph - 0.03 in Rain Light Rain
9:53 PM 59.0 °F 57.9 °F 96% 29.99 in 6.0 mi WNW 3.5 mph - 0.03 in Rain Light Rain
10:53 PM 57.9 °F 57.9 °F 100% 29.99 in 10.0 mi Calm Calm - 0.03 in Rain Light Rain
11:53 PM 57.9 °F 57.0 °F 97% 29.98 in 6.0 mi East 3.5 mph - 0.05 in Rain Rain